| time (UTC) | temp F | wind direction | speed MPH | gust MPH | rain 1hr in | rain 24hr in | rain mn in | humidity % | barometer mb |
| 20260903042512 | 66 | 238 | 3.0 | 10.0 | 0.21 | 1.12 | 0.02 | 93 | 1013.1 |
| 20260903042026 | 66 | 240 | 3.0 | 10.0 | 0.21 | 1.12 | 0.02 | 93 | 1013.0 |
| 20260903041532 | 66 | 202 | 4.0 | 15.0 | 0.21 | 1.12 | 0.02 | 93 | 1012.9 |
| 20260903041003 | 66 | 207 | 4.0 | 15.0 | 0.20 | 1.12 | 0.01 | 92 | 1013.2 |
| 20260903040518 | 66 | 171 | 3.0 | 15.0 | 0.19 | 1.11 | 0.00 | 91 | 1014.1 |
| 20260903040025 | 66 | 229 | 6.0 | 16.0 | 0.19 | 1.11 | 1.11 | 91 | 1014.5 |
| 20260903035519 | 67 | 360 | 5.0 | 16.0 | 0.18 | 1.10 | 1.11 | 91 | 1014.2 |
| 20260903035030 | 67 | 159 | 3.0 | 14.0 | 0.17 | 1.09 | 1.09 | 91 | 1013.7 |
| 20260903034537 | 68 | 218 | 5.0 | 14.0 | 0.11 | 1.03 | 1.04 | 91 | 1013.8 |
| 20260903034046 | 68 | 235 | 9.0 | 16.0 | 0.01 | 0.93 | 0.93 | 93 | 1013.9 |
| 20260903033551 | 68 | 360 | 7.0 | 16.0 | 0.00 | 0.92 | 0.92 | 93 | 1013.1 |
| 20260903033012 | 67 | 360 | 2.0 | 6.0 | 0.01 | 0.92 | 0.92 | 93 | 1012.5 |
| 20260903032516 | 67 | 223 | 2.0 | 10.0 | 0.08 | 0.92 | 0.92 | 93 | 1011.9 |
| 20260903032032 | 67 | 360 | 4.0 | 10.0 | 0.14 | 0.92 | 0.92 | 93 | 1011.9 |
| 20260903031539 | 67 | 166 | 2.0 | 9.0 | 0.23 | 0.92 | 0.92 | 93 | 1011.9 |
| 20260903031042 | 67 | 141 | 3.0 | 8.0 | 0.45 | 0.92 | 0.92 | 93 | 1012.1 |
| 20260903030552 | 67 | 175 | 3.0 | 12.0 | 0.61 | 0.92 | 0.92 | 93 | 1011.9 |
| 20260903030053 | 67 | 168 | 4.0 | 12.0 | 0.64 | 0.92 | 0.92 | 93 | 1012.0 |
| 20260903025536 | 66 | 185 | 3.0 | 9.0 | 0.67 | 0.92 | 0.92 | 93 | 1012.0 |
| 20260903025038 | 66 | 207 | 3.0 | 15.0 | 0.68 | 0.92 | 0.92 | 93 | 1011.9 |
| 20260903024546 | 66 | 201 | 5.0 | 15.0 | 0.68 | 0.92 | 0.92 | 93 | 1012.1 |
| 20260903024056 | 66 | 194 | 4.0 | 12.0 | 0.68 | 0.92 | 0.92 | 92 | 1012.5 |
| 20260903023600 | 67 | 192 | 3.0 | 17.0 | 0.68 | 0.92 | 0.92 | 92 | 1012.7 |
| 20260903023504 | 67 | 360 | 2.0 | 17.0 | 0.67 | 0.91 | 0.92 | 92 | 1012.9 |
| 20260903023009 | 67 | 182 | 5.0 | 18.0 | 0.67 | 0.91 | 0.91 | 91 | 1013.4 |
| 20260903022519 | 68 | 257 | 8.0 | 20.0 | 0.60 | 0.84 | 0.86 | 91 | 1013.7 |
| 20260903022032 | 69 | 360 | 10.0 | 38.0 | 0.54 | 0.78 | 0.78 | 92 | 1014.7 |
| 20260903021537 | 69 | 360 | 14.0 | 38.0 | 0.43 | 0.67 | 0.69 | 91 | 1015.0 |
| 20260903021041 | 70 | 246 | 9.0 | 16.0 | 0.21 | 0.45 | 0.47 | 91 | 1013.9 |
| 20260903020545 | 70 | 360 | 7.0 | 16.0 | 0.07 | 0.31 | 0.33 | 92 | 1014.2 |
| 20260903020055 | 71 | 360 | 3.0 | 9.0 | 0.04 | 0.28 | 0.28 | 92 | 1014.5 |
| 20260903015552 | 70 | 230 | 3.0 | 9.0 | 0.01 | 0.25 | 0.25 | 92 | 1013.8 |
| 20260903015043 | 70 | 178 | 0.0 | 3.0 | 0.00 | 0.24 | 0.24 | 92 | 1013.6 |
| 20260903014612 | 71 | 180 | 0.0 | 2.0 | 0.00 | 0.24 | 0.24 | 92 | 1013.0 |
| 20260903014059 | 71 | 180 | 0.0 | 2.0 | 0.00 | 0.24 | 0.24 | 92 | 1012.9 |
| 20260903013508 | 71 | 180 | 0.0 | 0.0 | 0.00 | 0.24 | 0.24 | 91 | 1012.1 |
| 20260903013010 | 70 | 180 | 0.0 | 2.0 | 0.00 | 0.24 | 0.24 | 91 | 1012.5 |
| 20260903012601 | 70 | 180 | 0.0 | 2.0 | 0.00 | 0.24 | 0.24 | 91 | 1012.5 |
| 20260903012504 | 70 | 180 | 0.0 | 2.0 | 0.00 | 0.24 | 0.24 | 91 | 1012.5 |
| 20260903012042 | 70 | 180 | 0.0 | 1.0 | 0.00 | 0.24 | 0.24 | 91 | 1012.8 |
| 20260903011524 | 70 | 180 | 0.0 | 2.0 | 0.00 | 0.24 | 0.24 | 90 | 1012.9 |
| 20260903011018 | 70 | 180 | 0.0 | 2.0 | 0.00 | 0.24 | 0.24 | 90 | 1013.0 |
| 20260903010514 | 70 | 180 | 1.0 | 2.0 | 0.00 | 0.24 | 0.24 | 90 | 1013.1 |
| 20260903010028 | 70 | 180 | 0.0 | 0.0 | 0.01 | 0.24 | 0.24 | 90 | 1012.9 |
| 20260903005527 | 70 | 180 | 0.0 | 0.0 | 0.02 | 0.24 | 0.24 | 90 | 1012.8 |
| 20260903005036 | 70 | 181 | 0.0 | 0.0 | 0.03 | 0.24 | 0.24 | 90 | 1012.8 |
| 20260903004544 | 70 | 181 | 0.0 | 0.0 | 0.05 | 0.24 | 0.24 | 90 | 1012.8 |
| 20260903004052 | 70 | 181 | 0.0 | 0.0 | 0.06 | 0.24 | 0.24 | 89 | 1012.6 |
| 20260903003556 | 70 | 181 | 0.0 | 0.0 | 0.06 | 0.24 | 0.24 | 89 | 1012.3 |
| 20260903003002 | 70 | 181 | 0.0 | 0.0 | 0.06 | 0.24 | 0.24 | 88 | 1012.2 |
| 20260903002554 | 71 | 181 | 0.0 | 0.0 | 0.06 | 0.24 | 0.24 | 88 | 1011.9 |
| 20260903002102 | 71 | 181 | 0.0 | 1.0 | 0.06 | 0.24 | 0.24 | 87 | 1012.2 |
| 20260903001508 | 71 | 181 | 0.0 | 5.0 | 0.06 | 0.24 | 0.24 | 86 | 1012.2 |
| 20260903001024 | 71 | 181 | 0.0 | 5.0 | 0.06 | 0.24 | 0.24 | 85 | 1012.5 |
| 20260903000602 | 72 | 119 | 2.0 | 4.0 | 0.06 | 0.24 | 0.24 | 84 | 1012.7 |
| 20260903000504 | 72 | 117 | 1.0 | 4.0 | 0.06 | 0.24 | 0.24 | 84 | 1012.8 |
| 20260903000004 | 73 | 117 | 2.0 | 6.0 | 0.05 | 0.23 | 0.23 | 82 | 1012.9 |
| 20260902235517 | 74 | 113 | 3.0 | 6.0 | 0.04 | 0.22 | 0.22 | 80 | 1012.9 |
| 20260902235028 | 75 | 197 | 2.0 | 6.0 | 0.03 | 0.21 | 0.21 | 78 | 1013.2 |
| 20260902234512 | 76 | 162 | 1.0 | 14.0 | 0.00 | 0.18 | 0.18 | 75 | 1013.2 |
| 20260902234026 | 76 | 342 | 3.0 | 19.0 | 0.00 | 0.18 | 0.18 | 74 | 1012.9 |
| 20260902233536 | 78 | 347 | 7.0 | 19.0 | 0.00 | 0.18 | 0.18 | 81 | 1013.0 |
| 20260902233042 | 80 | 350 | 8.0 | 13.0 | 0.00 | 0.18 | 0.18 | 83 | 1012.8 |
| 20260902232545 | 81 | 242 | 0.0 | 0.0 | 0.00 | 0.18 | 0.18 | 82 | 1012.0 |
| 20260902232039 | 81 | 242 | 0.0 | 1.0 | 0.00 | 0.18 | 0.18 | 81 | 1011.7 |
| 20260902231547 | 82 | 242 | 0.0 | 1.0 | 0.00 | 0.18 | 0.18 | 79 | 1011.7 |
| 20260902231051 | 82 | 242 | 0.0 | 1.0 | 0.00 | 0.18 | 0.18 | 78 | 1011.8 |
| 20260902230558 | 83 | 242 | 0.0 | 2.0 | 0.00 | 0.18 | 0.18 | 77 | 1011.7 |
| 20260902230100 | 83 | 242 | 0.0 | 3.0 | 0.00 | 0.18 | 0.18 | 76 | 1011.7 |
| 20260902225511 | 84 | 242 | 1.0 | 3.0 | 0.00 | 0.18 | 0.18 | 75 | 1011.6 |
| 20260902225024 | 84 | 242 | 0.0 | 4.0 | 0.00 | 0.18 | 0.18 | 75 | 1011.5 |
| 20260902224522 | 84 | 242 | 1.0 | 5.0 | 0.00 | 0.18 | 0.18 | 74 | 1011.5 |
| 20260902224030 | 83 | 257 | 3.0 | 5.0 | 0.00 | 0.18 | 0.18 | 74 | 1011.6 |
| 20260902223534 | 83 | 250 | 2.0 | 8.0 | 0.00 | 0.18 | 0.18 | 74 | 1011.4 |
| 20260902223037 | 83 | 360 | 3.0 | 8.0 | 0.00 | 0.18 | 0.18 | 74 | 1011.4 |
| 20260902222538 | 83 | 249 | 4.0 | 8.0 | 0.00 | 0.18 | 0.18 | 75 | 1011.5 |
| 20260902222038 | 83 | 360 | 3.0 | 10.0 | 0.00 | 0.18 | 0.18 | 76 | 1011.4 |
| 20260902221546 | 83 | 360 | 3.0 | 8.0 | 0.00 | 0.18 | 0.18 | 79 | 1011.2 |
| 20260902221055 | 83 | 247 | 0.0 | 3.0 | 0.00 | 0.18 | 0.18 | 81 | 1011.2 |
| 20260902220548 | 82 | 247 | 0.0 | 3.0 | 0.00 | 0.18 | 0.18 | 82 | 1011.2 |
| 20260902220046 | 82 | 246 | 1.0 | 4.0 | 0.00 | 0.18 | 0.18 | 82 | 1011.2 |
| 20260902215549 | 81 | 247 | 1.0 | 6.0 | 0.00 | 0.18 | 0.18 | 81 | 1011.0 |
| 20260902215041 | 81 | 247 | 2.0 | 10.0 | 0.00 | 0.18 | 0.18 | 79 | 1011.1 |
| 20260902214554 | 82 | 257 | 4.0 | 10.0 | 0.00 | 0.18 | 0.18 | 78 | 1011.1 |
| 20260902214045 | 82 | 226 | 3.0 | 9.0 | 0.00 | 0.18 | 0.18 | 78 | 1011.3 |
| 20260902213537 | 83 | 360 | 2.0 | 5.0 | 0.00 | 0.18 | 0.18 | 78 | 1011.5 |
| 20260902213029 | 82 | 241 | 2.0 | 6.0 | 0.00 | 0.18 | 0.18 | 79 | 1011.3 |
| 20260902212538 | 82 | 360 | 2.0 | 9.0 | 0.00 | 0.18 | 0.18 | 79 | 1011.3 |
| 20260902212042 | 82 | 257 | 3.0 | 9.0 | 0.00 | 0.18 | 0.18 | 78 | 1011.1 |
| 20260902211549 | 83 | 360 | 4.0 | 9.0 | 0.00 | 0.18 | 0.18 | 77 | 1011.0 |
| 20260902211035 | 84 | 273 | 4.0 | 9.0 | 0.00 | 0.18 | 0.18 | 75 | 1010.9 |
| 20260902210541 | 86 | 229 | 2.0 | 5.0 | 0.00 | 0.18 | 0.18 | 71 | 1011.1 |
| 20260902210048 | 88 | 327 | 2.0 | 6.0 | 0.00 | 0.18 | 0.18 | 69 | 1011.1 |
| 20260902205553 | 90 | 262 | 2.0 | 6.0 | 0.00 | 0.18 | 0.18 | 70 | 1011.0 |
| 20260902205057 | 90 | 240 | 2.0 | 9.0 | 0.00 | 0.18 | 0.18 | 69 | 1011.1 |
| 20260902204540 | 90 | 236 | 3.0 | 6.0 | 0.00 | 0.18 | 0.18 | 70 | 1011.3 |
| 20260902204036 | 90 | 248 | 3.0 | 7.0 | 0.00 | 0.18 | 0.18 | 69 | 1011.4 |
| 20260902203519 | 90 | 236 | 2.0 | 7.0 | 0.00 | 0.18 | 0.18 | 69 | 1011.6 |
| 20260902203022 | 90 | 252 | 3.0 | 8.0 | 0.00 | 0.18 | 0.18 | 68 | 1011.9 |
| 20260902202524 | 90 | 360 | 2.0 | 10.0 | 0.00 | 0.18 | 0.18 | 67 | 1012.0 |
| 20260902202034 | 90 | 232 | 4.0 | 12.0 | 0.00 | 0.18 | 0.18 | 67 | 1012.0 |
| 20260902201516 | 90 | 360 | 4.0 | 12.0 | 0.00 | 0.18 | 0.18 | 68 | 1012.1 |
| 20260902201027 | 90 | 240 | 4.0 | 9.0 | 0.00 | 0.18 | 0.18 | 68 | 1012.2 |
| 20260902200533 | 90 | 213 | 3.0 | 8.0 | 0.00 | 0.18 | 0.18 | 70 | 1012.4 |
| 20260902200045 | 90 | 360 | 4.0 | 11.0 | 0.00 | 0.18 | 0.18 | 70 | 1012.4 |
| 20260902195548 | 90 | 360 | 3.0 | 12.0 | 0.00 | 0.18 | 0.18 | 70 | 1012.5 |
| 20260902195100 | 89 | 225 | 4.0 | 12.0 | 0.00 | 0.18 | 0.18 | 68 | 1012.6 |
| 20260902194534 | 89 | 248 | 2.0 | 10.0 | 0.00 | 0.18 | 0.18 | 69 | 1012.6 |
| 20260902194023 | 89 | 225 | 3.0 | 13.0 | 0.00 | 0.18 | 0.18 | 69 | 1012.6 |
| 20260902193530 | 89 | 360 | 5.0 | 13.0 | 0.00 | 0.18 | 0.18 | 68 | 1012.6 |
| 20260902193034 | 89 | 230 | 4.0 | 11.0 | 0.00 | 0.18 | 0.18 | 69 | 1012.6 |
| 20260902192538 | 89 | 199 | 2.0 | 11.0 | 0.00 | 0.18 | 0.18 | 70 | 1012.5 |
| 20260902192013 | 89 | 236 | 5.0 | 11.0 | 0.00 | 0.18 | 0.18 | 69 | 1012.7 |
| 20260902191526 | 89 | 216 | 3.0 | 10.0 | 0.00 | 0.18 | 0.18 | 71 | 1012.7 |
| 20260902191003 | 88 | 360 | 4.0 | 10.0 | 0.00 | 0.18 | 0.18 | 70 | 1012.8 |
| 20260902190516 | 88 | 267 | 5.0 | 11.0 | 0.00 | 0.18 | 0.18 | 70 | 1012.9 |
| 20260902190024 | 88 | 193 | 2.0 | 12.0 | 0.00 | 0.18 | 0.18 | 72 | 1012.9 |
| 20260902185527 | 87 | 360 | 5.0 | 12.0 | 0.00 | 0.18 | 0.18 | 71 | 1013.1 |
| 20260902185021 | 88 | 360 | 3.0 | 9.0 | 0.00 | 0.18 | 0.18 | 72 | 1013.0 |
| 20260902184514 | 88 | 242 | 2.0 | 8.0 | 0.00 | 0.18 | 0.18 | 73 | 1012.9 |
| 20260902184055 | 88 | 249 | 3.0 | 9.0 | 0.00 | 0.18 | 0.18 | 72 | 1012.9 |
| 20260902183510 | 88 | 263 | 2.0 | 8.0 | 0.00 | 0.18 | 0.18 | 72 | 1012.9 |
| 20260902183014 | 88 | 227 | 3.0 | 10.0 | 0.00 | 0.18 | 0.18 | 70 | 1012.9 |
| 20260902182557 | 88 | 210 | 3.0 | 10.0 | 0.00 | 0.18 | 0.18 | 71 | 1012.8 |
| 20260902182002 | 87 | 219 | 2.0 | 6.0 | 0.00 | 0.18 | 0.18 | 72 | 1012.8 |
| 20260902181550 | 86 | 360 | 2.0 | 6.0 | 0.00 | 0.18 | 0.18 | 73 | 1012.8 |
| 20260902181055 | 86 | 186 | 2.0 | 7.0 | 0.00 | 0.18 | 0.18 | 73 | 1013.0 |
| 20260902180506 | 85 | 190 | 2.0 | 7.0 | 0.00 | 0.18 | 0.18 | 73 | 1013.1 |
| 20260902180058 | 85 | 215 | 0.0 | 4.0 | 0.00 | 0.18 | 0.18 | 74 | 1013.2 |
| 20260902175549 | 85 | 229 | 1.0 | 7.0 | 0.00 | 0.18 | 0.18 | 73 | 1013.3 |
| 20260902175031 | 86 | 238 | 2.0 | 9.0 | 0.00 | 0.18 | 0.18 | 71 | 1013.5 |
| 20260902174534 | 86 | 360 | 4.0 | 9.0 | 0.00 | 0.18 | 0.18 | 70 | 1013.6 |
| 20260902174033 | 87 | 173 | 2.0 | 9.0 | 0.00 | 0.18 | 0.18 | 71 | 1013.6 |
| 20260902173541 | 87 | 196 | 3.0 | 10.0 | 0.00 | 0.18 | 0.18 | 70 | 1013.6 |
| 20260902173048 | 86 | 235 | 3.0 | 10.0 | 0.00 | 0.18 | 0.18 | 70 | 1013.6 |
| 20260902172557 | 87 | 250 | 2.0 | 8.0 | 0.00 | 0.18 | 0.18 | 70 | 1013.6 |
| 20260902172101 | 86 | 231 | 1.0 | 8.0 | 0.00 | 0.18 | 0.18 | 72 | 1013.7 |
| 20260902171506 | 86 | 242 | 3.0 | 9.0 | 0.00 | 0.18 | 0.18 | 72 | 1013.7 |
| 20260902171014 | 85 | 219 | 3.0 | 9.0 | 0.00 | 0.18 | 0.18 | 73 | 1013.7 |
| 20260902170522 | 85 | 194 | 4.0 | 11.0 | 0.00 | 0.18 | 0.18 | 72 | 1013.7 |
| 20260902170103 | 85 | 246 | 5.0 | 11.0 | 0.00 | 0.18 | 0.18 | 72 | 1013.8 |
| 20260902165541 | 85 | 193 | 1.0 | 4.0 | 0.00 | 0.18 | 0.18 | 76 | 1013.9 |
| 20260902165049 | 84 | 188 | 1.0 | 9.0 | 0.00 | 0.18 | 0.18 | 75 | 1013.9 |
| 20260902164554 | 84 | 210 | 2.0 | 9.0 | 0.00 | 0.18 | 0.18 | 76 | 1013.9 |
| 20260902164037 | 83 | 202 | 2.0 | 7.0 | 0.00 | 0.18 | 0.18 | 76 | 1013.9 |
| 20260902163539 | 83 | 226 | 1.0 | 7.0 | 0.00 | 0.18 | 0.18 | 78 | 1013.9 |
| 20260902163028 | 82 | 187 | 3.0 | 9.0 | 0.00 | 0.18 | 0.18 | 78 | 1013.9 |
| 20260902162536 | 82 | 173 | 2.0 | 9.0 | 0.00 | 0.18 | 0.18 | 78 | 1013.9 |
| 20260902162039 | 81 | 173 | 2.0 | 8.0 | 0.00 | 0.18 | 0.18 | 78 | 1013.7 |
| 20260902161542 | 80 | 234 | 4.0 | 12.0 | 0.00 | 0.18 | 0.18 | 78 | 1013.7 |
| 20260902161045 | 80 | 182 | 4.0 | 12.0 | 0.00 | 0.18 | 0.18 | 78 | 1013.7 |
| 20260902160532 | 79 | 210 | 3.0 | 8.0 | 0.00 | 0.18 | 0.18 | 79 | 1013.9 |
| 20260902160024 | 78 | 150 | 2.0 | 8.0 | 0.00 | 0.18 | 0.18 | 80 | 1013.9 |
| 20260902155529 | 78 | 194 | 2.0 | 5.0 | 0.00 | 0.18 | 0.18 | 80 | 1014.0 |
| 20260902155034 | 78 | 206 | 2.0 | 6.0 | 0.00 | 0.18 | 0.18 | 79 | 1014.0 |
| 20260902154538 | 78 | 221 | 3.0 | 7.0 | 0.00 | 0.18 | 0.18 | 79 | 1014.0 |
| 20260902154049 | 78 | 150 | 2.0 | 10.0 | 0.00 | 0.18 | 0.18 | 80 | 1014.0 |
| 20260902153553 | 78 | 205 | 1.0 | 10.0 | 0.00 | 0.18 | 0.18 | 82 | 1014.0 |
| 20260902153101 | 78 | 193 | 2.0 | 7.0 | 0.00 | 0.18 | 0.18 | 83 | 1014.0 |
| 20260902152511 | 77 | 209 | 3.0 | 8.0 | 0.00 | 0.18 | 0.18 | 84 | 1014.1 |
| 20260902152021 | 76 | 179 | 2.0 | 9.0 | 0.00 | 0.18 | 0.18 | 85 | 1014.1 |
| 20260902151528 | 75 | 202 | 3.0 | 9.0 | 0.00 | 0.18 | 0.18 | 86 | 1014.0 |
| 20260902151034 | 74 | 232 | 2.0 | 9.0 | 0.00 | 0.18 | 0.18 | 87 | 1014.0 |
| 20260902150511 | 74 | 153 | 3.0 | 10.0 | 0.01 | 0.18 | 0.18 | 87 | 1014.0 |
| 20260902150011 | 73 | 150 | 3.0 | 10.0 | 0.01 | 0.18 | 0.18 | 88 | 1014.1 |
| 20260902145527 | 73 | 195 | 2.0 | 6.0 | 0.01 | 0.18 | 0.18 | 88 | 1014.2 |
| 20260902145025 | 73 | 162 | 3.0 | 5.0 | 0.01 | 0.18 | 0.18 | 88 | 1014.4 |
| 20260902144527 | 73 | 189 | 2.0 | 6.0 | 0.01 | 0.18 | 0.18 | 88 | 1014.4 |
| 20260902144029 | 73 | 192 | 2.0 | 6.0 | 0.01 | 0.18 | 0.18 | 88 | 1014.5 |
| 20260902143535 | 72 | 173 | 2.0 | 5.0 | 0.01 | 0.18 | 0.18 | 88 | 1014.4 |
| 20260902143016 | 72 | 162 | 3.0 | 7.0 | 0.01 | 0.18 | 0.18 | 89 | 1014.4 |
| 20260902142533 | 72 | 148 | 3.0 | 7.0 | 0.01 | 0.18 | 0.18 | 89 | 1014.5 |
| 20260902142027 | 72 | 177 | 3.0 | 7.0 | 0.01 | 0.18 | 0.18 | 89 | 1014.5 |
| 20260902141508 | 72 | 150 | 3.0 | 7.0 | 0.01 | 0.18 | 0.18 | 89 | 1014.5 |
| 20260902141056 | 72 | 153 | 2.0 | 9.0 | 0.01 | 0.18 | 0.18 | 88 | 1014.5 |
| 20260902140541 | 72 | 134 | 3.0 | 11.0 | 0.00 | 0.17 | 0.17 | 88 | 1014.4 |
| 20260902140044 | 72 | 167 | 2.0 | 11.0 | 0.00 | 0.17 | 0.17 | 88 | 1014.4 |
| 20260902135548 | 72 | 175 | 2.0 | 9.0 | 0.01 | 0.17 | 0.17 | 89 | 1014.4 |
| 20260902135053 | 72 | 172 | 3.0 | 6.0 | 0.01 | 0.17 | 0.17 | 89 | 1014.3 |
| 20260902134503 | 71 | 236 | 2.0 | 6.0 | 0.01 | 0.17 | 0.17 | 90 | 1014.6 |
| 20260902134002 | 71 | 198 | 2.0 | 9.0 | 0.01 | 0.17 | 0.17 | 90 | 1014.8 |
| 20260902133513 | 71 | 131 | 2.0 | 9.0 | 0.01 | 0.17 | 0.17 | 91 | 1014.6 |
| 20260902133025 | 71 | 183 | 2.0 | 8.0 | 0.01 | 0.17 | 0.17 | 91 | 1014.8 |
| 20260902132539 | 71 | 201 | 1.0 | 7.0 | 0.01 | 0.17 | 0.17 | 91 | 1014.8 |
| 20260902132047 | 71 | 205 | 2.0 | 7.0 | 0.01 | 0.17 | 0.17 | 91 | 1014.7 |
| 20260902131601 | 71 | 195 | 1.0 | 4.0 | 0.01 | 0.17 | 0.17 | 91 | 1014.3 |
| 20260902131103 | 71 | 200 | 1.0 | 5.0 | 0.02 | 0.17 | 0.17 | 91 | 1014.5 |
| 20260902130515 | 71 | 200 | 2.0 | 12.0 | 0.02 | 0.17 | 0.17 | 91 | 1014.3 |
| 20260902130026 | 71 | 195 | 2.0 | 14.0 | 0.02 | 0.17 | 0.17 | 91 | 1014.5 |
| 20260902125534 | 71 | 227 | 5.0 | 10.0 | 0.01 | 0.16 | 0.16 | 91 | 1014.9 |
| 20260902125039 | 71 | 360 | 2.0 | 12.0 | 0.01 | 0.16 | 0.16 | 91 | 1015.1 |
| 20260902124543 | 70 | 221 | 3.0 | 12.0 | 0.01 | 0.16 | 0.16 | 91 | 1014.7 |
| 20260902124046 | 70 | 250 | 4.0 | 10.0 | 0.01 | 0.16 | 0.16 | 91 | 1014.7 |
| 20260902123554 | 70 | 215 | 2.0 | 11.0 | 0.01 | 0.16 | 0.16 | 91 | 1014.5 |
| 20260902123006 | 70 | 227 | 4.0 | 11.0 | 0.01 | 0.16 | 0.16 | 91 | 1014.8 |
| 20260902122522 | 70 | 190 | 1.0 | 8.0 | 0.01 | 0.16 | 0.16 | 91 | 1014.7 |
| 20260902122022 | 70 | 360 | 3.0 | 8.0 | 0.03 | 0.16 | 0.16 | 91 | 1014.4 |
| 20260902121532 | 70 | 178 | 2.0 | 6.0 | 0.04 | 0.16 | 0.16 | 91 | 1014.2 |
| 20260902121046 | 70 | 202 | 2.0 | 7.0 | 0.04 | 0.15 | 0.16 | 91 | 1014.4 |
| 20260902120528 | 71 | 238 | 1.0 | 9.0 | 0.04 | 0.15 | 0.15 | 91 | 1014.8 |
| 20260902120041 | 71 | 201 | 3.0 | 12.0 | 0.07 | 0.15 | 0.15 | 91 | 1015.0 |
| 20260902115546 | 71 | 222 | 2.0 | 15.0 | 0.13 | 0.15 | 0.15 | 91 | 1015.1 |
| 20260902115048 | 72 | 360 | 6.0 | 15.0 | 0.14 | 0.15 | 0.15 | 91 | 1015.4 |
| 20260902114555 | 72 | 265 | 6.0 | 11.0 | 0.15 | 0.15 | 0.15 | 92 | 1015.7 |
| 20260902114100 | 72 | 360 | 2.0 | 7.0 | 0.15 | 0.15 | 0.15 | 91 | 1015.2 |
| 20260902113508 | 72 | 210 | 2.0 | 8.0 | 0.15 | 0.15 | 0.15 | 91 | 1014.7 |
| 20260902113104 | 72 | 200 | 0.0 | 6.0 | 0.15 | 0.15 | 0.15 | 91 | 1014.9 |
| 20260902112504 | 72 | 193 | 2.0 | 9.0 | 0.14 | 0.14 | 0.14 | 90 | 1014.9 |
| 20260902112049 | 72 | 201 | 2.0 | 5.0 | 0.13 | 0.13 | 0.13 | 90 | 1015.1 |
| 20260902111555 | 73 | 199 | 2.0 | 5.0 | 0.12 | 0.12 | 0.12 | 90 | 1014.9 |
| 20260902111048 | 74 | 211 | 1.0 | 3.0 | 0.11 | 0.11 | 0.11 | 90 | 1014.5 |
| 20260902110557 | 74 | 211 | 1.0 | 12.0 | 0.11 | 0.11 | 0.11 | 89 | 1014.2 |
| 20260902110104 | 74 | 360 | 3.0 | 12.0 | 0.08 | 0.08 | 0.08 | 88 | 1014.4 |
| 20260902105504 | 75 | 360 | 4.0 | 10.0 | 0.01 | 0.01 | 0.02 | 87 | 1014.5 |
| 20260902105014 | 75 | 223 | 5.0 | 10.0 | 0.01 | 0.01 | 0.01 | 87 | 1014.4 |
| 20260902104532 | 76 | 214 | 2.0 | 11.0 | 0.00 | 0.00 | 0.00 | 86 | 1013.7 |
| 20260902104025 | 76 | 205 | 3.0 | 11.0 | 0.00 | 0.00 | 0.00 | 86 | 1013.4 |
| 20260902103532 | 75 | 215 | 4.0 | 7.0 | 0.00 | 0.00 | 0.00 | 87 | 1013.2 |
| 20260902103040 | 75 | 213 | 2.0 | 5.0 | 0.00 | 0.00 | 0.00 | 86 | 1012.8 |
| 20260902102550 | 75 | 197 | 2.0 | 8.0 | 0.00 | 0.00 | 0.00 | 86 | 1012.5 |
| 20260902102059 | 75 | 183 | 3.0 | 9.0 | 0.00 | 0.00 | 0.00 | 86 | 1012.6 |
| 20260902101605 | 75 | 140 | 2.0 | 8.0 | 0.00 | 0.00 | 0.00 | 86 | 1012.7 |
| 20260902101502 | 75 | 140 | 3.0 | 8.0 | 0.00 | 0.00 | 0.00 | 86 | 1012.6 |
| 20260902101006 | 75 | 196 | 3.0 | 8.0 | 0.00 | 0.00 | 0.00 | 86 | 1012.3 |
| 20260902100518 | 75 | 181 | 1.0 | 5.0 | 0.00 | 0.00 | 0.00 | 86 | 1012.4 |
| 20260902100028 | 75 | 138 | 2.0 | 6.0 | 0.00 | 0.00 | 0.00 | 87 | 1012.7 |
| 20260902095539 | 75 | 157 | 2.0 | 8.0 | 0.00 | 0.00 | 0.00 | 87 | 1012.9 |
| 20260902095051 | 75 | 146 | 3.0 | 8.0 | 0.00 | 0.00 | 0.00 | 86 | 1013.0 |
| 20260902094554 | 75 | 163 | 2.0 | 6.0 | 0.00 | 0.00 | 0.00 | 86 | 1012.8 |
| 20260902094040 | 75 | 188 | 3.0 | 6.0 | 0.00 | 0.00 | 0.00 | 85 | 1012.4 |
| 20260902093545 | 75 | 197 | 2.0 | 5.0 | 0.00 | 0.00 | 0.00 | 85 | 1012.5 |
| 20260902093034 | 75 | 162 | 2.0 | 7.0 | 0.00 | 0.00 | 0.00 | 85 | 1012.6 |
| 20260902092534 | 75 | 139 | 3.0 | 6.0 | 0.00 | 0.00 | 0.00 | 85 | 1012.7 |
| 20260902092026 | 75 | 151 | 2.0 | 6.0 | 0.00 | 0.00 | 0.00 | 85 | 1012.8 |
| 20260902091527 | 75 | 169 | 3.0 | 5.0 | 0.00 | 0.00 | 0.00 | 85 | 1012.9 |
| 20260902091030 | 75 | 172 | 3.0 | 8.0 | 0.00 | 0.00 | 0.00 | 85 | 1012.8 |
| 20260902090535 | 75 | 148 | 2.0 | 8.0 | 0.00 | 0.00 | 0.00 | 85 | 1012.9 |
| 20260902090048 | 75 | 197 | 2.0 | 8.0 | 0.00 | 0.00 | 0.00 | 85 | 1013.0 |
| 20260902085600 | 75 | 177 | 1.0 | 8.0 | 0.00 | 0.00 | 0.00 | 85 | 1013.0 |
| 20260902085002 | 75 | 184 | 2.0 | 8.0 | 0.00 | 0.00 | 0.00 | 86 | 1013.2 |
| 20260902084516 | 75 | 229 | 2.0 | 5.0 | 0.00 | 0.00 | 0.00 | 85 | 1013.3 |
| 20260902084022 | 75 | 224 | 1.0 | 4.0 | 0.00 | 0.00 | 0.00 | 85 | 1013.2 |
| 20260902083523 | 75 | 142 | 1.0 | 3.0 | 0.00 | 0.00 | 0.00 | 85 | 1013.3 |
| 20260902083032 | 75 | 184 | 2.0 | 3.0 | 0.00 | 0.00 | 0.00 | 85 | 1013.3 |
| 20260902082542 | 75 | 194 | 1.0 | 3.0 | 0.00 | 0.00 | 0.00 | 85 | 1013.3 |
| 20260902082050 | 75 | 194 | 1.0 | 4.0 | 0.00 | 0.00 | 0.00 | 85 | 1013.5 |
| 20260902081505 | 75 | 193 | 1.0 | 6.0 | 0.00 | 0.00 | 0.00 | 86 | 1013.6 |
| 20260902081104 | 74 | 224 | 1.0 | 6.0 | 0.00 | 0.00 | 0.00 | 86 | 1013.5 |
| 20260902080550 | 74 | 209 | 0.0 | 4.0 | 0.00 | 0.00 | 0.00 | 86 | 1013.4 |
| 20260902080013 | 74 | 215 | 1.0 | 5.0 | 0.00 | 0.00 | 0.00 | 86 | 1013.4 |
| 20260902075512 | 74 | 202 | 1.0 | 4.0 | 0.00 | 0.00 | 0.00 | 86 | 1013.4 |
| 20260902075024 | 74 | 209 | 1.0 | 4.0 | 0.00 | 0.00 | 0.00 | 86 | 1013.4 |
| 20260902074527 | 74 | 212 | 2.0 | 5.0 | 0.00 | 0.00 | 0.00 | 85 | 1013.5 |
| 20260902074034 | 74 | 216 | 2.0 | 5.0 | 0.00 | 0.00 | 0.00 | 85 | 1013.5 |
| 20260902073538 | 74 | 251 | 1.0 | 5.0 | 0.00 | 0.00 | 0.00 | 85 | 1013.5 |
| 20260902073046 | 74 | 280 | 1.0 | 5.0 | 0.00 | 0.00 | 0.00 | 85 | 1013.6 |
| 20260902072552 | 74 | 226 | 2.0 | 5.0 | 0.00 | 0.00 | 0.00 | 85 | 1013.6 |
| 20260902072002 | 74 | 201 | 1.0 | 5.0 | 0.00 | 0.00 | 0.00 | 85 | 1013.7 |
| 20260902071524 | 74 | 198 | 1.0 | 6.0 | 0.00 | 0.00 | 0.00 | 85 | 1013.6 |
| 20260902071028 | 74 | 200 | 2.0 | 6.0 | 0.00 | 0.00 | 0.00 | 85 | 1013.6 |
| 20260902070535 | 74 | 212 | 0.0 | 4.0 | 0.00 | 0.00 | 0.00 | 85 | 1013.7 |
| 20260902070021 | 74 | 223 | 1.0 | 5.0 | 0.00 | 0.00 | 0.00 | 85 | 1013.7 |
| 20260902065523 | 75 | 232 | 1.0 | 5.0 | 0.00 | 0.00 | 0.00 | 85 | 1013.8 |
| 20260902065038 | 75 | 206 | 1.0 | 4.0 | 0.00 | 0.00 | 0.00 | 85 | 1013.7 |
| 20260902064549 | 75 | 175 | 0.0 | 4.0 | 0.00 | 0.00 | 0.00 | 85 | 1013.6 |
| 20260902064049 | 75 | 196 | 1.0 | 4.0 | 0.00 | 0.00 | 0.00 | 84 | 1013.6 |
| 20260902063600 | 75 | 196 | 1.0 | 3.0 | 0.00 | 0.00 | 0.00 | 84 | 1013.6 |
| 20260902063501 | 75 | 196 | 0.0 | 3.0 | 0.00 | 0.00 | 0.00 | 84 | 1013.6 |
| 20260902063016 | 75 | 196 | 1.0 | 4.0 | 0.00 | 0.00 | 0.00 | 84 | 1013.9 |
| 20260902062522 | 75 | 197 | 1.0 | 4.0 | 0.00 | 0.00 | 0.00 | 84 | 1013.9 |
| 20260902062016 | 76 | 193 | 1.0 | 6.0 | 0.00 | 0.00 | 0.00 | 83 | 1014.0 |
| 20260902061518 | 76 | 189 | 2.0 | 6.0 | 0.00 | 0.00 | 0.00 | 83 | 1014.1 |
| 20260902061036 | 76 | 185 | 1.0 | 6.0 | 0.00 | 0.00 | 0.00 | 83 | 1014.1 |
| 20260902060530 | 76 | 204 | 1.0 | 6.0 | 0.00 | 0.00 | 0.00 | 83 | 1014.2 |
| 20260902060019 | 76 | 190 | 1.0 | 7.0 | 0.00 | 0.00 | 0.00 | 83 | 1014.2 |
| 20260902055554 | 76 | 191 | 2.0 | 7.0 | 0.00 | 0.00 | 0.00 | 82 | 1014.1 |
| 20260902055057 | 77 | 187 | 0.0 | 8.0 | 0.00 | 0.00 | 0.00 | 82 | 1014.1 |
| 20260902054507 | 77 | 186 | 2.0 | 8.0 | 0.00 | 0.00 | 0.00 | 82 | 1014.1 |
| 20260902054021 | 77 | 202 | 2.0 | 5.0 | 0.00 | 0.00 | 0.00 | 82 | 1013.9 |
| 20260902053524 | 77 | 215 | 1.0 | 5.0 | 0.00 | 0.00 | 0.00 | 82 | 1013.9 |
| 20260902053042 | 77 | 180 | 1.0 | 4.0 | 0.00 | 0.00 | 0.00 | 81 | 1013.9 |
| 20260902052541 | 77 | 180 | 1.0 | 6.0 | 0.00 | 0.00 | 0.00 | 81 | 1013.9 |
| 20260902052032 | 77 | 180 | 1.0 | 6.0 | 0.00 | 0.00 | 0.00 | 81 | 1013.7 |
| 20260902051544 | 77 | 200 | 1.0 | 5.0 | 0.00 | 0.00 | 0.00 | 82 | 1013.8 |
| 20260902051045 | 77 | 198 | 0.0 | 4.0 | 0.00 | 0.00 | 0.00 | 82 | 1013.8 |
| 20260902050552 | 77 | 205 | 1.0 | 4.0 | 0.00 | 0.00 | 0.00 | 82 | 1013.9 |
| 20260902050042 | 77 | 209 | 0.0 | 4.0 | 0.00 | 0.00 | 0.00 | 82 | 1013.9 |
| 20260902045521 | 77 | 209 | 1.0 | 4.0 | 0.00 | 0.00 | 0.00 | 82 | 1013.7 |
| 20260902045026 | 77 | 213 | 0.0 | 2.0 | 0.00 | 0.00 | 0.00 | 81 | 1013.6 |
| 20260902044542 | 77 | 213 | 0.0 | 1.0 | 0.00 | 0.00 | 0.00 | 81 | 1013.6 |
| 20260902044034 | 77 | 213 | 0.0 | 2.0 | 0.00 | 0.00 | 0.00 | 82 | 1013.6 |
| 20260902043542 | 77 | 213 | 0.0 | 2.0 | 0.00 | 0.00 | 0.00 | 82 | 1013.6 |
| 20260902043050 | 77 | 214 | 0.0 | 0.0 | 0.00 | 0.00 | 0.00 | 82 | 1013.6 |